Home   Weather   Seoul   Past weeks

Flag for South Korea Past Weather in Seoul, South Korea — Yesterday and Last 2 Weeks

Now
66 °F

Rain. Fog.


Feels Like: 66 °F
Forecast: 64 / 75 °F
Wind: 3 mph from East

Location: Seoul / Kimp'O International Airport

Current Time: Sep 27, 2016 at 4:08:08 PM

Latest Report: Sep 27, 2016 at 3:00 PM


Visibility: 2 mi

Pressure: 30.01 "Hg

Humidity: 83%

Dew Point: 61 °F

Location of SeoulLocation

Past Weather in Seoul — Graph

°F

Seoul Temperature Yesterday

Maximum temperature yesterday: 84 °F (at 4:00 PM)
Minimum temperature yesterday: 66 °F (at 12:00 AM)
Average temperature yesterday: 73 °F

High & Low Weather Summary for the Past Weeks

 TemperatureHumidityPressure
High84 °F (Sep 13, 2:00 PM)88% (Sep 13, 5:00 AM)30.21 "Hg (Sep 13, 5:00 AM)
Low55 °F (Sep 21, 5:00 AM)21% (Sep 20, 2:00 PM)29.80 "Hg (Sep 17, 4:00 PM)
Average71 °F61%30.01 "Hg
* Reported Sep 12 3:00 PM — Sep 27 3:00 PM, Seoul, Weather by CustomWeather, © 2016

Note: Actual official high and low records may vary slightly from our data, if they occured in-between our weather recording intervals... More about our weather records

Advertising

Seoul Weather History for the Previous 24 Hours

Scroll right to see more
 ConditionsComfort  
Time TempWeatherWind HumidityBarometerVisibility
3:00 PM
Tue, Sep 27
66 °FRain. Fog.3 mph83%30.01 "Hg2 mi
2:00 PM66 °FRain. Fog.8 mph83%30.01 "Hg2 mi
1:00 PM68 °FLight rain. Fog.8 mph83%30.04 "Hg2 mi
12:00 PM68 °FLight rain. Fog.9 mph78%30.04 "Hg2 mi
11:00 AM70 °FLight rain. Fog.9 mph83%30.04 "Hg2 mi
10:00 AM73 °FFog.6 mph74%30.04 "Hg3 mi
9:00 AM73 °FBroken clouds.5 mph69%30.01 "Hg4 mi
8:00 AM72 °FBroken clouds.5 mph78%30.01 "Hg4 mi
7:00 AM70 °FBroken clouds.3 mph78%30.01 "Hg4 mi
6:00 AM70 °FPartly cloudy.5 mph78%29.98 "Hg4 mi
5:00 AM70 °FPartly cloudy.3 mph83%29.98 "Hg4 mi
4:00 AM70 °FPassing clouds.2 mph78%29.98 "Hg4 mi
3:00 AM68 °FFog.2 mph83%29.98 "Hg3 mi
2:00 AM70 °FPassing clouds.2 mph78%29.98 "Hg4 mi
1:00 AM70 °FPassing clouds.5 mph78%30.01 "Hg4 mi
12:00 AM70 °FPassing clouds.5 mph78%30.01 "Hg4 mi
11:00 PM
Mon, Sep 26
72 °FPassing clouds.1 mph73%30.01 "Hg4 mi
10:00 PM72 °FPassing clouds.5 mph69%30.01 "Hg4 mi
9:00 PM72 °FPassing clouds.1 mph69%30.01 "Hg4 mi
8:00 PM75 °FClear.6 mph57%29.98 "Hg4 mi
7:00 PM77 °FClear.5 mph51%29.98 "Hg4 mi
6:00 PM81 °FClear.6 mph45%29.98 "Hg4 mi
5:00 PM82 °FClear.6 mph37%29.98 "Hg4 mi
4:00 PM84 °FClear.7 mph40%29.95 "Hg4 mi
Weather by CustomWeather, © 2016

See weather overviewHow to use our weather pages